Content
SEND FEEDBACK

Daily
Averages
Monthly
Summary
United States of America

ST. LOUIS, MISSOURI


Home > North America > United States > Missouri
Elevation: 163 meters     Latitude: 38 45N     Longitude: 090 22W

WEATHER
 
SELECT A DAY
Number of Records: 196,318;   Date Range: 1/1/95 - 7/23/14
 
SHARE

PRINT THIS DATA

[ ← Previous Day ]
WEATHER ALMANAC - 28 MARCH, 2013
[ Next Day → ]
[ °F ]   °C
Weather ElementAverageHighLow
Temperature8 °C13.3 °C (4:54 pm)2.2 °C (4:54 am)
Dewpoint-0.4 °C2.2 °C (5:54 pm)-3.9 °C (6:54 am)
Humidity56.6 %76 % (4:54 am)45 % (3:54 pm)
Barometer1026.1 hPa1028.4 hPa (8:54 am)1023.7 hPa (4:54 pm)
Wind Speed10.5 km/h18.5 km/h (2:54 pm)
Wind Gust29.6 km/h (3:54 pm)
Weather ElementAverage
Visibility16.1 km
Wind DirectionE (84.8 °)

Weather ElementTotal
Precipitation---
Heating Degree Days10.6 (Base 18.3)
Averaged from 23 records on 28 March, 2013
WEATHER CONDITIONS BREAKOUT
WIND DIRECTION BREAKOUT
WEATHER BY HOUR - 28 MARCH, 2013
[ °F ]   °C
Local TimeTemperatureDewpointHumidityBarometerVisibilityWind DirectionWind SpeedGust SpeedPrecipitationEventsConditions
1:54 AM3.9 °C-1.7 °C67 %1027.4 hPa16.1 kmNE (40°)5.6 km/hOvercast
2:54 AM2.8 °C-1.7 °C73 %1027.4 hPa16.1 kmCalmOvercast
3:54 AM2.8 °C-2.2 °C70 %1027.1 hPa16.1 kmEast (80°)5.6 km/hOvercast
4:54 AM2.2 °C-1.7 °C76 %1027.4 hPa16.1 kmEast (80°)7.4 km/hOvercast
5:54 AM2.2 °C-2.2 °C73 %1027.8 hPa16.1 kmEast (90°)7.4 km/hOvercast
6:54 AM2.8 °C-3.9 °C62 %1028.1 hPa16.1 kmEast (90°)5.6 km/hOvercast
7:54 AM2.8 °C-3.9 °C62 %1028.1 hPa16.1 kmEast (90°)11.1 km/hMostly Cloudy
8:54 AM4.4 °C-3.9 °C55 %1028.4 hPa16.1 kmEast (100°)11.1 km/hMostly Cloudy
9:54 AM5.6 °C-3.3 °C53 %1028.4 hPa16.1 kmEast (100°)13 km/hPartly Cloudy
10:54 AM7.2 °C-2.2 °C52 %1028.1 hPa16.1 kmESE (120°)9.3 km/hMostly Cloudy
11:54 AM8.9 °C-1.1 °C50 %1027.8 hPa16.1 kmEast (90°)16.7 km/hMostly Cloudy
12:54 PM10.6 °C0 °C48 %1027.4 hPa16.1 kmESE (110°)9.3 km/hPartly Cloudy
1:54 PM11.7 °C1.1 °C48 %1026.1 hPa16.1 kmEast (80°)13 km/hOvercast
2:54 PM12.2 °C1.1 °C47 %1025.4 hPa16.1 kmEast (100°)18.5 km/hMostly Cloudy
3:54 PM12.8 °C1.1 °C45 %1024.4 hPa16.1 kmESE (110°)11.1 km/h29.6 km/hMostly Cloudy
4:54 PM13.3 °C1.7 °C45 %1023.7 hPa16.1 kmEast (100°)13 km/hMostly Cloudy
5:54 PM13.3 °C2.2 °C47 %1023.7 hPa16.1 kmEast (90°)14.8 km/hMostly Cloudy
6:54 PM12.2 °C2.2 °C51 %1024 hPa16.1 kmEast (90°)16.7 km/hMostly Cloudy
7:54 PM11.1 °C1.7 °C53 %1024 hPa16.1 kmEast (90°)11.1 km/hMostly Cloudy
8:54 PM10.6 °C1.7 °C54 %1024.4 hPa16.1 kmEast (90°)13 km/hMostly Cloudy
9:54 PM10.6 °C1.7 °C54 %1024.4 hPa16.1 kmEast (100°)11.1 km/hOvercast
10:54 PM10 °C1.7 °C57 %1024.4 hPa16.1 kmVariable7.4 km/hMostly Cloudy
11:54 PM9.4 °C1.7 °C59 %1024.4 hPa16.1 kmESE (110°)7.4 km/hScattered Clouds
Hourly data recorded from KSUS, located 0 kilometers away from St. Louis, Missouri







STORIES FROM OUR PARTNERS